Погода в Максатихе

Погода в Максатихе : погода сейчас, прогноз погоды и архив. Всё, что Вы хотите узнать о погоде в Максатихе!

Поиск расширенной информации на нашем сайте:

Другие новости

Новости СМИ2

Главная страница сайта

Новости сайта

02.10.2013

Напоминаем, что на нашем новом сайте вы можете получить высокодетализированные прогнозы погоды по пунктам России, СНГ и мира (включающие важные для авиации метеовеличины, такие как направление и скорость ветра, видимость, явления погоды, количество и форма облачности, нижняя и верхняя граница облачности), а также ознакомиться с разнообразными материалами по авиационной метеорологии и подборкой полезных ссылок на эту тему.

Сайт Метеоцентр.Азия посвящён разработке технологий оптимизации авиаметеорологического обслуживания, включая проектирование и перспективное создание нескольких автоматизированных авиаметеорологических систем:
- система выпуска высокодетальных прогностических карт явлений погоды для нижнего воздушного пространства по России и ближнему зарубежью;
- система верификации прогнозов TAF (выпускаемых синоптиками официальных АМСГ РФ и ближнего зарубежья) и AUTOTAF (выпускаемых сайтом Метеоцентр.Азия) - выявление ошибок, онлайн-сопоставление с фактической погодой METAR, автоматическое внесение коррективов в прогнозы при резком отклонении фактической погоды от прогноза, подсчёт оправдываемости прогнозов по элементам и в целом;
- система обработки, анализа и отображения авиаметеорологической информации для применения провайдерами метеорологической информации.

Рекомендуем: Стирка пуховика и подушек в стиральной машине moyatehnika.ru.

Погода в Максатихе - сегодня

Время (UTC), дата Ветер
(°,м/с) 
Видим.   Явления Облачность Т
(°С)
Тd
(°С)
f(%) Тe
(°С)
Pmin
(гПа)
dP
(гПа)
Po
(мм)
O2
(г/м3)
Тmin Tmax R s Состояние
почвы
12 19.01.17 250 (З) 4{11}  10 км  {снег, морось} [диам. гололёда 0 мм]  9/9 600 м 
[Sc]
-1.2 -3.2 86 -4  1016.8  -2.2  749  304           
15 19.01.17 240 (ЮЗ) 4000 м  слаб. ливневой снег  9/9 600 м кучево-дожд. 
[Cb cap]
-1.1 -2.5 90 -3  1014.8  -1.9  748  303      0.0     
18 19.01.17 250 (З) 4-10{10}  10 км  в посл. час ливневой снег  9/9 600 м кучево-дожд. 
[Cb cap]
-0.6 -2.3 88 -3  1012.1  -2.6  746  301    -0.6  0.0     
21 19.01.17 240 (ЮЗ) 4{11}  10 км  в посл. час ливневой снег  9/9 600 м кучево-дожд. 
[Cb cap]
-0.1 -1.7 89 -3  1009.1  -2.9  743  300           
00 20.01.17 260 (З) 4{12}  4000 м  слаб. ливневой снег  9/9 600 м кучево-дожд. 
[Cb cap]
+0.3 -0.5 94 -2  1008.1  -1  743  299           
03 20.01.17 340 (С) 6-11{11}  0500 м  крупа{ливн. осадки}  9/9 600 м кучево-дожд. 
[Cb cap]
+0.4 -1.3 88 -3  1008.7  0.6  743  299  -1.1    0.6     
06 20.01.17 310 (СЗ) 5{12}  10 км  позёмок{ливн. осадки}  8/6 600 м кучево-дожд., средняя 
[Cb cap|Ac trans]
-0.9 -6.5 66 -4  1010.9  2.1  745  302  -1.2    28  неравномерный
сухой снег
100% 
09 20.01.17 310 (СЗ) 4{13}  10 км  позёмок  3/3 300 м 
[St]
-1.9 -9.1 58 -5  1013.5  2.4  747  304           
12 20.01.17 310 (СЗ) 4{13}  10 км  позёмок  1/1 300 м 
[St]
-2.4 -10.4 54 -5  1014.6  1.1  747  305           
15 20.01.17 220 (ЮЗ) 10 км    3/0 средняя 
[Ac trans]
-6 -11.3 66 -6  1014.8  747  309         
18 20.01.17 260 (З) 10 км    9/0 средняя 
[Ac As]
-5.6 -8.9 78 -8  1013.3  -1.5  746  308    -0.9       
21 20.01.17 250 (З) 10 км    9/0 средняя 
[Ac trans]
-5.3 -8.3 79 -7  1011.3  -1.9  745  307           
00 21.01.17 270 (З) 10 км    9/8 600 м средняя 
[Sc|Ac trans]
-5.2 -6.7 89 -8  1009.7  -1.5  744  306           
03 21.01.17 300 (СЗ) 4000 м  слаб. снег  10/0 средняя 
[As op]
-3.5 -4.9 90 -6  1009.1  -0.5  743  304  -6.9    0.2     
06 21.01.17 300 (СЗ) 10 км  {снег}  3/3 600 м 
[Sc]
-4.6 -7.4 81 -7  1010  0.8  744  306  -6.9    0.2  28  неравномерный
сухой снег
100% 
09 21.01.17 300 (СЗ) 4000 м  слаб. ливневой снег  9/9 600 м кучево-дожд. 
[Cb cap]
-3.5 -6.4 80 -6  1010.4  0.5  744  304           
12 21.01.17 320 (СЗ) 4{11}  10 км  позёмок{ливн. осадки}  6/6 600 м кучево-дожд. 
[Cb cap]
-3 -8.3 67 -6  1011.7  1.3  745  304           
15 21.01.17 310 (СЗ) 4{11}  10 км  позёмок  ясно 
-4.5 -9 71 -8  1014.7  2.9  747  307      0.3     
18 21.01.17 300 (СЗ) 3{11}  10 км    ясно 
-6.2 -8.8 82 -9  1017.5  2.6  749  310    -3  0.3     
21 21.01.17 280 (З) 10 км    ясно 
-7.4 -9 88 -10  1019.3  1.6  751  312           
00 22.01.17 280 (З) 10 км    8/8 100 м 
[St]
-7 -8.9 86 -10  1019.4  0.2  751  311           
03 22.01.17 260 (З) 10 км    9/9 100 м 
[St]
-7.6 -9.1 89 -9  1019.1  -0.3  750  312  -8.5         
06 22.01.17 270 (З) 10 км    9/9 600 м 
[Sc]
-5.9 -7.6 88 -8  1017.5  -1.5  749  309  -8.5      28  неравномерный
сухой снег
100% 
09 22.01.17 260 (З) 10 км  слаб. ливневой снег  9/9 1000 м кучево-дожд. 
[Cb cap]
-4.3 -6.5 85 -7  1015.3  -2  748  307           
12 22.01.17 270 (З) 4000 м  слаб. ливневой снег  9/9 600 м кучево-дожд. 
[Cb cap]
-3.4 -4.4 93 -6  1012.8  -2.4  746  305           
Время (UTC), дата Ветер
(°,м/с) 
Видим.   Явления Облачность Т
(°С)
Тd
(°С)
f(%) Тe
(°С)
Pmin
(гПа)
dP
(гПа)
Po
(мм)
O2
(г/м3)
Тmin Tmax R s Состояние
почвы

Для получения пояснительной информации подведите курсор к названию столбца.

ПОГОДА в Максатихе - архив

Всё, что Вы хотите узнать о погоде в Максатихе - удобно и подробно!

Выберите нужную дату (начиная с 1 января 2015* года) и нажмите кнопку "Найти".
Будут отображены архивные сводки погоды по пункту Максатиха, начиная с указанной даты.


Отображать данные в формате CSV (для использования в таблицах Excel)


Внимание! Наш архив погоды предназначен исключительно для личного некоммерческого использования в познавательных целях. Если Вам необходимы официальные справки о состоянии погоды (для производственных, юридических, коммерческих и т.п. целей), обращайтесь в органы Росгидромета.

*Примечание: данная дата относится к архиву по метеостанциям СССР (Россия, СНГ, Балтия).
Архив по метеостанциям Зарубежной Европы и Азии (кроме Китая) хранится 10 дней, по другим регионам земного шара (Китай, Африка, Америка, Австралия, Океания) - 1 день.

Максатиха - район местоположения метеостанции


Название, широта, долгота, высота метеостанции:
Максатиха 57.8°ш. 35.9°д. 140 м над ур. моря [Российская Федерация]

Дополнительная информация

В oтличие oт бoльшинства пoгoдных сайтoв мы публикуем пoдрoбную метеoинфoрмацию в детальнoм прoфессиoнальнoм фoрмате.

Характеристики температуры и влажнoсти вoздуха измеряются на высoте 2 м в тени вдали oт зданий и деревьев.
Скoрoсть ветра измеряется на высoте 10 м (на урoвне рoста челoвека скoрoсть ветра ниже в 1.5-2 раза). Если метеoстанция нахoдится в гoрoде или в лесу, тo скoрoсть ветра занижена на 2-4 м/с пo сравнению с oткрытым местoм. Скoрoсть ветра над акватoриями крупных рек и oзёр, а также на вершинах хoлмoв на 2-5 м/с выше, чем в oбычных услoвиях.
Атмoсфернoе давление в разных тoчках местнoсти мoжет значительнo oтличаться oт давления на метеoстанции, в зависимoсти oт услoвий рельефа (при пoдъёме на 10 м давление пoнижается примернo на 1 мм рт.ст.).